www.pogodaiklimat.ru

Погода и климат >> Архив погоды >> Парагвай >> Puerto Casado


ПОГОДА в Puerto Casado

  • Прогноз погоды в Puerto Casado
  • Монитор погоды в Puerto Casado
  • Климат города

АРХИВ ПОГОДЫ в Puerto Casado

Время (UTC), дата Ветер
(напр.,м/с)
 
Видим.   Явления Облачность Т
(С)
Тd
(С)
f
(%)
Тe
(С)
Тes
(С)
Комфортность P
(гПа)
Po
(гПа)
Тmin
(С)
Tmax
(С)
R
(мм)
R24
(мм)
S
(см)
09 20.05 штиль 0 20 км ясно +11.0 +9.0 87 +10 +10 1019.6 1010.1
12 20.05 Ю 1 20 км ясно +14.0 +12.1 88 +14 +17 1020.5 1011.1 +10.0
15 20.05 Ю 1 20 км ясно +20.4 +10.8 54 +23 +36 комфорт 1021.4 1012.2
18 20.05 Ю 1 20 км ясно +22.6 +10.6 47 +25 +34 комфорт 1018.1 1008.9
21 20.05 штиль 0 20 км ясно +22.0 +13.3 58 +25 +25 комфорт 1015.0 1005.9
00 21.05 штиль 0 20 км ясно +15.0 +13.2 89 +15 +15 1016.3 1006.9 +23.0
03 21.05 штиль 0 20 км ясно +13.0 +11.1 88 +12 +12 1016.4 1007.0
12 21.05 Ю 1 20 км 4/0
[Ci]
+13.8 +12.0 89 +14 +16 1017.2 1007.8 +9.8
15 21.05 СВ 1 20 км 3/0
[Ci]
+22.4 +8.4 41 +24 +36 комфорт 1017.0 1008.0
18 21.05 СВ 1 20 км 5/0
[Ci]
+23.6 +9.6 41 +25 +33 комфорт 1016.0 1006.9
21 21.05 штиль 0 20 км 5/0
[Ci]
+23.0 +12.5 52 +26 +26 жарко 1016.0 1006.9
00 22.05 штиль 0 20 км ясно +16.0 +14.2 89 +16 +16 1017.3 1007.9 +24.0
12 22.05 Ю 1 20 км 3/0
[Ci]
+13.8 +10.7 82 +14 +17 1019.6 1010.2 +11.0
15 22.05 Ю 1 20 км ясно +23.0 +12.5 52 +26 +39 жарко 1019.0 1010.0
18 22.05 Ю 2 20 км 4/4 800 м
[Cu hum]
+24.6 +13.3 49 +27 +32 жарко 1017.5 1008.5
21 22.05 Ю 1 20 км 4/0
[Ci]
+20.0 +12.9 64 +23 +23 комфорт 1018.0 1008.9
00 23.05 Ю 1 20 км 5/0
[Ac trans]
+17.8 +14.7 82 +19 +19 1020.1 1010.9 +25.0
03 23.05 Ю 1 20 км 4/0
[Ac trans]
+16.4 +13.9 85 +17 +17 1020.2 1010.9
06 23.05 штиль 0 20 км ясно +14.6 +13.2 91 +14 +14 1019.4 1010.0
09 23.05 Ю 1 20 км ясно +12.6 +11.4 92 +13 +13 1019.4 1010.0
12 23.05 ЮВ 1 20 км 4/0
[Ci]
+13.6 +10.9 84 +14 +16 1020.6 1011.2 +10.6
15 23.05 ЮВ 1 20 км 4/1 800 м
[Cu hum Ci]
+20.8 +7.6 42 +23 +34 комфорт 1021.4 1012.2
18 23.05 Ю 1 20 км 3/1 800 м
[Cu hum Ci fib]
+23.6 +9.6 41 +25 +32 комфорт 1019.0 1009.9
21 23.05 штиль 0 20 км ясно +21.0 +9.9 49 +22 +23 комфорт 1017.1 1007.9
00 24.05 штиль 0 20 км ясно +18.0 +12.6 71 +18 +18 1019.1 1009.9 +24.0
03 24.05 штиль 0 20 км ясно +16.2 +14.1 87 +16 +16 1020.2 1010.9
09 24.05 штиль 0 20 км 4/4 450 м
[Sc]
+15.0 +13.2 89 +15 +15 1020.6 1011.2
12 24.05 Ю 1 20 км 8/0 2000 м
[Ac trans]
+16.2 +14.1 87 +17 +18 1021.3 1012.0 +13.6
15 24.05 Ю 1 20 км 5/0 2000 м
[Ac trans]
+23.0 +12.5 52 +26 +35 жарко 1021.7 1012.6
18 24.05 Ю 1 20 км 4/0 2000 м
[Ac trans]
+26.0 +14.2 48 +28 +35 жарко 1019.7 1010.7
21 24.05 Ю 1 20 км ясно +24.0 +17.6 67 +28 +28 душно 1018.7 1009.7
00 25.05 Ю 1 20 км ясно +18.2 +12.4 69 +20 +20 1019.2 1009.9 +26.0
03 25.05 Ю 1 20 км ясно +16.4 +14.1 86 +17 +17 1019.2 1009.9
09 25.05 Ю 1 20 км 8/8 450 м
[Sc]
+15.0 +13.2 89 +15 +15 1018.4 1009.0
12 25.05 Ю 1 20 км 9/0 2000 м
[Ac As]
+17.6 +14.8 84 +19 +20 1019.9 1010.7 +15.0
15 25.05 Ю 1 20 км 9/0 2000 м
[Ac trans]
+23.0 +12.5 52 +26 +32 жарко 1020.0 1010.9
18 25.05 Ю 1 20 км 6/0 2000 м
[Ac trans]
+26.0 +14.2 48 +28 +34 жарко 1016.7 1007.7
21 25.05 штиль 0 20 км 4/0 2000 м
[Ac trans]
+25.0 +16.9 61 +29 +29 душно 1015.6 1006.6
00 26.05 штиль 0 20 км 6/0 2000 м
[Ac trans]
+22.0 +17.1 74 +26 +26 душно 1016.7 1007.6 +26.0
06 26.05 штиль 0 20 км 4/0 2000 м
[Ac trans]
+18.4 +16.0 86 +19 +19 1016.5 1007.3
09 26.05 штиль 0 20 км 4/0 2000 м
[Ac trans]
+17.0 +16.3 96 +17 +17 1016.0 1006.7
12 26.05 штиль 0 20 км 4/0 2000 м
[Ac trans]
+19.0 +17.3 90 +20 +23 1015.9 1006.7 +17.0
15 26.05 Ю 1 20 км 6/0 2000 м
[Ac trans]
+27.0 +17.5 56 +31 +39 душно 1014.7 1005.7
18 26.05 штиль 0 20 км 4/0
[Ci]
+31.0 +14.7 37 +33 +42 душно 1012.0 1003.2
00 27.05 штиль 0 20 км 4/0
[Ci]
+23.0 +18.2 74 +29 +29 очень
душно
1012.8 1003.7 +31.0

 

Местоположение метеостанции Puerto Casado (Парагвай): широта -22.28 долгота -57.86 высота над уровнем моря 87 м.

В архиве по умолчанию представлена погода в Puerto Casado за последнюю неделю. Архивные данные за месяц целиком и за предыдущие месяцы, начиная с января 2011 года, Вы можете получить, выбрав интересующий диапазон дат из раскрывающегося списка и нажав кнопку "Ввод!".


*Определитесь, кто Вы:
робот инопланетянин человек

Внимание! Время в таблицах - всемирное. Для получения местного времени необходимо прибавить поправку, которая в Puerto Casado равна -4 ч.

Смотрите также архив погоды в соседних городах и на ближайших метеорологических станциях:

Погода в Concepcion (Парагвай) (138 км)
Погода в Pozo Colorado (Парагвай) (162 км)
Погода в San Pedro (Парагвай) (213 км)
Погода в Pedro Juan Caballer (Парагвай) (222 км)
Погода в Ponta Pora (Бразилия) (224 км)
Погода в Ponta Pora (Бразилия) (241 км)
Погода в Miranda (Бразилия) (256 км)
Погода в Amambai (Бразилия) (272 км)
Погода в Mariscal Estigar (Парагвай) (284 км)
Погода в Maracaju (Бразилия) (286 км)

Пояснения к столбцам:

Ветер - указаны скорость ветра в м/с - средняя за 10 мин, порывы в срок и между сроками (в фигурных скобках) и направление, откуда дует ветер: С - северный, СВ - северо-восточный, В - восточный, ЮВ - юго-восточный, Ю - южный, ЮЗ - юго-западный, З - западный, СЗ - северо-западный.
Видимость - горизонтальная дальность видимости в метрах или километрах. При видимости от 1 до 10 км при отсутствии осадков обычно наблюдается дымка, при ухудшении видимости до 1 км и менее - туман. В сухую погоду видимость может ухудшаться дымом, пылью или мглою.
Явления - указаны атмосферные явления, наблюдавшиеся в срок или в последний час перед сроком; фигурными скобками обозначены явления, наблюдавшиеся между сроками (за 1-3 часа до срока); квадратными скобками обозначены град или гололедные отложения с указанием их диаметра в мм.
Облачность - указаны через наклонную черту общая и нижняя облачность в баллах и высота нижней границы облаков в метрах; квадратными скобками обозначены формы облаков: Ci - перистые, Cs - перисто-слоистые, Cc - перисто-кучевые, Ac - высококучевые, As - высокослоистые, Sc - слоисто-кучевые, Ns - слоисто-дождевые, Cu - кучевые, Cb - кучево-дождевые. Подробнее классификацию облаков см. в Атласе облаков (PDF).
T - Температура воздуха - температура, измеренная на высоте 2 м над землей.
Td - Температура точки росы - температура, при понижении до которой содержащийся в воздухе водяной пар достигнет насыщения.
f - Относительная влажность воздуха - влажноcть воздуха, измеренная на высоте 2 м над землей.
Te - Эффективная температура - температура, которую ощущает одетый по сезону человек в тени. Характеристика душности погоды. При расчете учитывается влияние влажности воздуха и скорости ветра на теплоощущения человека.
Tes - Эффективная температура на солнце - температура, которую ощущает человек, с поправкой на солнечный нагрев. Характеристика знойности погоды. Зависит от высоты солнца над горизонтом, облачности и скорости ветра. Ночью, в пасмурную погоду, а также при ветре 12 м/с и более поправка равна нулю.
P - Атмосферное давление - приведенное к уровню моря атмосферное давление.
Po - Атмосферное давление - измеренное на уровне метеостанции атмосферное давление.
Tmin - Минимальная температура - минимум температуры воздуха на высоте 2 м над землей.
Tmax - Максимальная температура - максимум температуры воздуха на высоте 2 м над землей.
R - Количество осадков - Количество выпавших осадков за период времени, мм. При наведении курсора мыши на число - период времени, за который выпало указанное количество осадков.
R24 - Количество осадков - Количество выпавших осадков за 24 часа, мм.
S - Снежный покров - Высота снежного покрова, см. При наведении курсора мыши на число - состояние снежного покрова и степень покрытия местности в баллах.